Time,TemperatureF,DewpointF,PressureIn,WindDirection,WindDirectionDegrees,WindSpeedMPH,WindSpeedGustMPH,Humidity,HourlyPrecipIn,Conditions,Clouds,dailyrainin,SoftwareType,DateUTC
2013-07-28 00:01:00,66.3,60.3,29.95,SW,234,1.6,1.6,81,0.00,,,0.00,VWS V14.01,2013-07-28 04:01:00,
2013-07-28 00:06:00,66.4,59.7,29.95,WNW,288,1.6,6.4,79,0.00,,,0.00,VWS V14.01,2013-07-28 04:06:00,
2013-07-28 00:11:00,66.4,59.7,29.95,WSW,255,4.8,4.8,79,0.00,,,0.00,VWS V14.01,2013-07-28 04:11:00,
2013-07-28 00:16:00,66.5,59.8,29.95,WNW,293,1.6,3.2,79,0.00,,,0.00,VWS V14.01,2013-07-28 04:16:00,
2013-07-28 00:22:00,66.4,59.7,29.95,NW,305,4.8,4.8,79,0.00,,,0.00,VWS V14.01,2013-07-28 04:22:00,
2013-07-28 00:27:00,66.2,59.5,29.95,NW,309,4.8,6.4,79,0.00,,,0.00,VWS V14.01,2013-07-28 04:27:00,
2013-07-28 00:32:00,66.0,59.3,29.95,WNW,287,1.6,1.6,79,0.00,,,0.00,VWS V14.01,2013-07-28 04:32:00,
2013-07-28 00:37:00,66.0,59.3,29.95,WSW,245,3.2,11.2,79,0.00,,,0.00,VWS V14.01,2013-07-28 04:37:00,
2013-07-28 00:42:00,66.2,59.5,29.95,NW,307,1.6,3.2,79,0.00,,,0.00,VWS V14.01,2013-07-28 04:42:00,
2013-07-28 00:47:00,66.1,59.0,29.95,West,262,4.8,8.0,78,0.00,,,0.00,VWS V14.01,2013-07-28 04:47:00,
2013-07-28 00:52:00,65.9,59.2,29.96,North,358,1.6,4.8,79,0.00,,,0.00,VWS V14.01,2013-07-28 04:52:00,
2013-07-28 00:57:00,65.7,59.0,29.96,NNE,26,3.2,6.4,79,0.00,,,0.00,VWS V14.01,2013-07-28 04:57:00,
2013-07-28 01:02:00,65.5,58.5,29.96,West,272,4.8,12.8,78,0.00,,,0.00,VWS V14.01,2013-07-28 05:02:00,
2013-07-28 01:07:00,65.3,58.6,29.96,WNW,297,3.2,8.0,79,0.00,,,0.00,VWS V14.01,2013-07-28 05:07:00,
2013-07-28 01:12:00,65.3,58.6,29.96,NW,314,4.8,8.0,79,0.00,,,0.00,VWS V14.01,2013-07-28 05:12:00,
2013-07-28 01:17:00,64.9,58.2,29.97,NW,317,6.4,6.4,79,0.00,,,0.00,VWS V14.01,2013-07-28 05:17:00,
2013-07-28 01:22:00,64.7,58.0,29.97,NNW,332,6.4,9.6,79,0.00,,,0.00,VWS V14.01,2013-07-28 05:22:00,
2013-07-28 01:27:00,64.5,57.8,29.97,NNW,328,3.2,8.0,79,0.00,,,0.00,VWS V14.01,2013-07-28 05:27:00,
2013-07-28 01:32:00,64.3,58.0,29.97,West,280,0.0,3.2,80,0.00,,,0.00,VWS V14.01,2013-07-28 05:32:00,
2013-07-28 01:37:00,64.1,57.8,29.97,NW,307,1.6,1.6,80,0.00,,,0.00,VWS V14.01,2013-07-28 05:37:00,
2013-07-28 01:42:00,64.0,57.7,29.97,WSW,243,3.2,3.2,80,0.00,,,0.00,VWS V14.01,2013-07-28 05:42:00,
2013-07-28 01:47:00,63.8,57.5,29.97,West,262,0.0,1.6,80,0.00,,,0.00,VWS V14.01,2013-07-28 05:47:00,
2013-07-28 01:52:00,63.6,57.3,29.97,SW,214,1.6,4.8,80,0.00,,,0.00,VWS V14.01,2013-07-28 05:52:00,
2013-07-28 01:57:00,63.3,57.0,29.97,NW,320,3.2,4.8,80,0.00,,,0.00,VWS V14.01,2013-07-28 05:57:00,
2013-07-28 02:02:00,63.2,56.6,29.97,West,277,1.6,6.4,79,0.00,,,0.00,VWS V14.01,2013-07-28 06:02:00,
2013-07-28 02:07:00,63.1,56.5,29.98,WNW,303,0.0,3.2,79,0.00,,,0.00,VWS V14.01,2013-07-28 06:07:00,
2013-07-28 02:12:00,63.0,56.4,29.98,WNW,297,0.0,1.6,79,0.00,,,0.00,VWS V14.01,2013-07-28 06:12:00,
2013-07-28 02:17:00,62.9,56.6,29.98,WNW,297,0.0,0.0,80,0.00,,,0.00,VWS V14.01,2013-07-28 06:17:00,
2013-07-28 02:22:00,62.6,56.7,29.98,WNW,296,0.0,0.0,81,0.00,,,0.00,VWS V14.01,2013-07-28 06:22:00,
2013-07-28 02:27:00,62.1,56.5,29.98,WNW,297,0.0,0.0,82,0.00,,,0.00,VWS V14.01,2013-07-28 06:27:00,
2013-07-28 02:32:00,61.9,56.7,29.98,WSW,241,1.6,3.2,83,0.00,,,0.00,VWS V14.01,2013-07-28 06:32:00,
2013-07-28 02:37:00,62.0,56.8,29.98,West,268,1.6,4.8,83,0.00,,,0.00,VWS V14.01,2013-07-28 06:37:00,
2013-07-28 02:42:00,62.2,56.6,29.98,WSW,246,1.6,4.8,82,0.00,,,0.00,VWS V14.01,2013-07-28 06:42:00,
2013-07-28 02:47:00,62.4,56.8,29.97,West,259,3.2,3.2,82,0.00,,,0.00,VWS V14.01,2013-07-28 06:47:00,
2013-07-28 02:52:00,62.3,56.7,29.98,WSW,255,1.6,6.4,82,0.00,,,0.00,VWS V14.01,2013-07-28 06:52:00,
2013-07-28 02:57:00,62.3,56.7,29.98,West,263,4.8,4.8,82,0.00,,,0.00,VWS V14.01,2013-07-28 06:57:00,
2013-07-28 03:02:00,62.3,56.4,29.98,West,277,0.0,3.2,81,0.00,,,0.00,VWS V14.01,2013-07-28 07:02:00,
2013-07-28 03:07:00,62.1,56.2,29.98,WNW,287,1.6,6.4,81,0.00,,,0.00,VWS V14.01,2013-07-28 07:07:00,
2013-07-28 03:12:00,61.9,56.0,29.98,SW,227,3.2,4.8,81,0.00,,,0.00,VWS V14.01,2013-07-28 07:12:00,
2013-07-28 03:17:00,61.8,55.9,29.98,West,260,0.0,3.2,81,0.00,,,0.00,VWS V14.01,2013-07-28 07:17:00,
2013-07-28 03:22:00,61.7,55.5,29.98,NW,323,1.6,4.8,80,0.00,,,0.00,VWS V14.01,2013-07-28 07:22:00,
2013-07-28 03:27:00,61.6,55.7,29.98,NW,311,0.0,3.2,81,0.00,,,0.00,VWS V14.01,2013-07-28 07:27:00,
2013-07-28 03:32:00,61.4,55.5,29.98,West,272,1.6,3.2,81,0.00,,,0.00,VWS V14.01,2013-07-28 07:32:00,
2013-07-28 03:37:00,61.3,55.4,29.98,WSW,248,3.2,4.8,81,0.00,,,0.00,VWS V14.01,2013-07-28 07:37:00,
2013-07-28 03:42:00,61.1,55.2,29.98,WSW,253,1.6,3.2,81,0.00,,,0.00,VWS V14.01,2013-07-28 07:42:00,
2013-07-28 03:47:00,60.9,55.0,29.99,West,259,0.0,1.6,81,0.00,,,0.00,VWS V14.01,2013-07-28 07:47:00,
2013-07-28 03:52:00,60.8,54.9,29.99,West,261,1.6,1.6,81,0.00,,,0.00,VWS V14.01,2013-07-28 07:52:00,
2013-07-28 03:57:00,60.5,54.7,29.99,West,262,0.0,1.6,81,0.00,,,0.00,VWS V14.01,2013-07-28 07:57:00,
2013-07-28 04:02:00,60.2,54.7,29.99,WSW,239,3.2,3.2,82,0.00,,,0.00,VWS V14.01,2013-07-28 08:02:00,
2013-07-28 04:07:00,60.2,54.4,29.99,WNW,283,1.6,3.2,81,0.00,,,0.00,VWS V14.01,2013-07-28 08:07:00,
2013-07-28 04:12:00,60.1,54.3,29.99,WSW,257,1.6,3.2,81,0.00,,,0.00,VWS V14.01,2013-07-28 08:12:00,
2013-07-28 04:17:00,59.9,54.4,29.99,WSW,256,0.0,3.2,82,0.00,,,0.00,VWS V14.01,2013-07-28 08:17:00,
2013-07-28 04:22:00,59.7,54.2,29.99,WSW,257,1.6,3.2,82,0.00,,,0.00,VWS V14.01,2013-07-28 08:22:00,
2013-07-28 04:27:00,59.4,54.2,29.99,WSW,252,1.6,1.6,83,0.00,,,0.00,VWS V14.01,2013-07-28 08:27:00,
2013-07-28 04:32:00,59.2,54.0,29.99,SW,227,1.6,3.2,83,0.00,,,0.00,VWS V14.01,2013-07-28 08:32:00,
2013-07-28 04:37:00,58.9,53.8,29.99,SW,235,3.2,3.2,83,0.00,,,0.00,VWS V14.01,2013-07-28 08:37:00,
2013-07-28 04:42:00,58.8,53.7,29.99,SW,236,3.2,3.2,83,0.00,,,0.00,VWS V14.01,2013-07-28 08:42:00,
2013-07-28 04:47:00,58.6,53.8,29.99,WSW,248,3.2,3.2,84,0.00,,,0.00,VWS V14.01,2013-07-28 08:47:00,
2013-07-28 04:52:00,58.4,53.6,29.99,SW,227,4.8,4.8,84,0.00,,,0.00,VWS V14.01,2013-07-28 08:52:00,
2013-07-28 04:57:00,58.4,53.6,29.99,WSW,248,3.2,4.8,84,0.00,,,0.00,VWS V14.01,2013-07-28 08:57:00,
2013-07-28 05:02:00,58.4,53.6,30.00,West,266,1.6,6.4,84,0.00,,,0.00,VWS V14.01,2013-07-28 09:02:00,
2013-07-28 05:07:00,58.3,53.5,30.00,West,269,3.2,4.8,84,0.00,,,0.00,VWS V14.01,2013-07-28 09:07:00,
2013-07-28 05:12:00,58.2,53.4,30.00,WSW,241,3.2,4.8,84,0.00,,,0.00,VWS V14.01,2013-07-28 09:12:00,
2013-07-28 05:17:00,58.0,53.2,30.00,West,269,1.6,3.2,84,0.00,,,0.00,VWS V14.01,2013-07-28 09:17:00,
2013-07-28 05:22:00,57.8,53.0,30.00,West,261,3.2,3.2,84,0.00,,,0.00,VWS V14.01,2013-07-28 09:22:00,
2013-07-28 05:27:00,57.7,52.9,30.00,West,269,1.6,3.2,84,0.00,,,0.00,VWS V14.01,2013-07-28 09:27:00,
2013-07-28 05:32:00,57.6,53.1,30.00,West,269,4.8,4.8,85,0.00,,,0.00,VWS V14.01,2013-07-28 09:32:00,
2013-07-28 05:37:00,57.4,52.9,30.00,West,280,1.6,6.4,85,0.00,,,0.00,VWS V14.01,2013-07-28 09:37:00,
2013-07-28 05:42:00,57.3,52.8,30.00,WNW,287,1.6,3.2,85,0.00,,,0.00,VWS V14.01,2013-07-28 09:42:00,
2013-07-28 05:47:00,57.1,52.6,30.01,WNW,288,0.0,1.6,85,0.00,,,0.00,VWS V14.01,2013-07-28 09:47:00,
2013-07-28 05:52:00,56.8,52.3,30.01,WNW,288,0.0,0.0,85,0.00,,,0.00,VWS V14.01,2013-07-28 09:52:00,
2013-07-28 05:57:00,56.6,52.5,30.01,WNW,288,0.0,1.6,86,0.00,,,0.00,VWS V14.01,2013-07-28 09:57:00,
2013-07-28 06:02:00,56.4,52.3,30.01,WNW,287,0.0,0.0,86,0.00,,,0.00,VWS V14.01,2013-07-28 10:02:00,
2013-07-28 06:07:00,56.1,52.0,30.01,WNW,287,0.0,0.0,86,0.00,,,0.00,VWS V14.01,2013-07-28 10:07:00,
2013-07-28 06:12:00,55.9,52.1,30.02,WNW,288,0.0,0.0,87,0.00,,,0.00,VWS V14.01,2013-07-28 10:12:00,
2013-07-28 06:17:00,55.7,51.9,30.01,WNW,288,0.0,0.0,87,0.00,,,0.00,VWS V14.01,2013-07-28 10:17:00,
2013-07-28 06:22:00,55.4,51.6,30.02,WNW,288,0.0,0.0,87,0.00,,,0.00,VWS V14.01,2013-07-28 10:22:00,
2013-07-28 06:27:00,54.8,51.0,30.02,WNW,288,0.0,0.0,87,0.00,,,0.00,VWS V14.01,2013-07-28 10:27:00,
2013-07-28 06:32:00,54.4,51.2,30.02,WNW,288,0.0,0.0,89,0.00,,,0.00,VWS V14.01,2013-07-28 10:32:00,
2013-07-28 06:37:00,54.2,51.0,30.03,WNW,288,0.0,0.0,89,0.00,,,0.00,VWS V14.01,2013-07-28 10:37:00,
2013-07-28 06:42:00,54.0,51.1,30.03,WNW,288,0.0,0.0,90,0.00,,,0.00,VWS V14.01,2013-07-28 10:42:00,
2013-07-28 06:47:00,54.0,51.1,30.03,WNW,288,1.6,1.6,90,0.00,,,0.00,VWS V14.01,2013-07-28 10:47:00,
2013-07-28 06:52:00,54.1,51.2,30.03,WNW,288,0.0,0.0,90,0.00,,,0.00,VWS V14.01,2013-07-28 10:52:00,
2013-07-28 06:57:00,53.8,50.9,30.03,WNW,288,0.0,0.0,90,0.00,,,0.00,VWS V14.01,2013-07-28 10:57:00,
2013-07-28 07:02:00,53.6,50.7,30.04,WNW,288,0.0,0.0,90,0.00,,,0.00,VWS V14.01,2013-07-28 11:02:00,
2013-07-28 07:07:00,53.7,51.1,30.04,WNW,287,0.0,0.0,91,0.00,,,0.00,VWS V14.01,2013-07-28 11:07:00,
2013-07-28 07:12:00,54.2,51.6,30.04,WNW,287,1.6,1.6,91,0.00,,,0.00,VWS V14.01,2013-07-28 11:12:00,
2013-07-28 07:17:00,54.5,51.6,30.05,WNW,287,0.0,1.6,90,0.00,,,0.00,VWS V14.01,2013-07-28 11:17:00,
2013-07-28 07:22:00,54.9,51.7,30.05,WNW,287,0.0,0.0,89,0.00,,,0.00,VWS V14.01,2013-07-28 11:22:00,
2013-07-28 07:27:00,55.3,51.8,30.05,WNW,287,0.0,1.6,88,0.00,,,0.00,VWS V14.01,2013-07-28 11:27:00,
2013-07-28 07:32:00,55.9,52.1,30.05,SW,214,0.0,1.6,87,0.00,,,0.00,VWS V14.01,2013-07-28 11:32:00,
2013-07-28 07:37:00,56.4,52.3,30.05,SSW,210,0.0,1.6,86,0.00,,,0.00,VWS V14.01,2013-07-28 11:37:00,
2013-07-28 07:42:00,56.9,52.8,30.05,SSW,210,1.6,1.6,86,0.00,,,0.00,VWS V14.01,2013-07-28 11:42:00,
2013-07-28 07:47:00,57.3,52.8,30.05,SSW,209,0.0,1.6,85,0.00,,,0.00,VWS V14.01,2013-07-28 11:47:00,
2013-07-28 07:52:00,57.8,53.3,30.05,SW,222,0.0,1.6,85,0.00,,,0.00,VWS V14.01,2013-07-28 11:52:00,
2013-07-28 07:57:00,58.5,53.7,30.05,NW,312,0.0,0.0,84,0.00,,,0.00,VWS V14.01,2013-07-28 11:57:00,
2013-07-28 08:02:00,59.2,53.4,30.05,WNW,282,0.0,1.6,81,0.00,,,0.00,VWS V14.01,2013-07-28 12:02:00,
2013-07-28 08:07:00,59.4,53.6,30.05,WSW,248,1.6,1.6,81,0.00,,,0.00,VWS V14.01,2013-07-28 12:07:00,
2013-07-28 08:12:00,59.7,53.9,30.05,South,187,0.0,1.6,81,0.00,,,0.00,VWS V14.01,2013-07-28 12:12:00,
2013-07-28 08:17:00,60.0,53.8,30.06,SW,227,1.6,1.6,80,0.00,,,0.00,VWS V14.01,2013-07-28 12:17:00,
2013-07-28 08:22:00,60.1,53.9,30.06,WSW,250,3.2,3.2,80,0.00,,,0.00,VWS V14.01,2013-07-28 12:22:00,
2013-07-28 08:27:00,60.2,53.3,30.06,SW,224,1.6,3.2,78,0.00,,,0.00,VWS V14.01,2013-07-28 12:27:00,
2013-07-28 08:32:00,60.6,53.4,30.06,West,263,3.2,4.8,77,0.00,,,0.00,VWS V14.01,2013-07-28 12:32:00,
2013-07-28 08:37:00,60.9,53.3,30.06,West,262,4.8,4.8,76,0.00,,,0.00,VWS V14.01,2013-07-28 12:37:00,
2013-07-28 08:42:00,61.1,53.8,30.06,WSW,239,1.6,4.8,77,0.00,,,0.00,VWS V14.01,2013-07-28 12:42:00,
2013-07-28 08:47:00,61.3,54.0,30.06,West,269,3.2,4.8,77,0.00,,,0.00,VWS V14.01,2013-07-28 12:47:00,
2013-07-28 08:52:00,61.4,54.1,30.06,West,265,0.0,4.8,77,0.00,,,0.00,VWS V14.01,2013-07-28 12:52:00,
2013-07-28 08:57:00,61.8,53.4,30.06,NW,323,0.0,4.8,74,0.00,,,0.00,VWS V14.01,2013-07-28 12:57:00,
2013-07-28 09:02:00,62.2,53.5,30.06,NNE,15,4.8,6.4,73,0.00,,,0.00,VWS V14.01,2013-07-28 13:02:00,
2013-07-28 09:07:00,62.6,53.8,30.06,NW,305,0.0,1.6,73,0.00,,,0.00,VWS V14.01,2013-07-28 13:07:00,
2013-07-28 09:12:00,63.0,53.5,30.06,WNW,291,1.6,1.6,71,0.00,,,0.00,VWS V14.01,2013-07-28 13:12:00,
2013-07-28 09:17:00,63.6,53.3,30.06,NW,320,3.2,3.2,69,0.00,,,0.00,VWS V14.01,2013-07-28 13:17:00,
2013-07-28 09:22:00,63.6,52.0,30.06,West,268,1.6,4.8,66,0.00,,,0.00,VWS V14.01,2013-07-28 13:22:00,
2013-07-28 09:27:00,63.7,52.5,30.06,NW,322,3.2,4.8,67,0.00,,,0.00,VWS V14.01,2013-07-28 13:27:00,
2013-07-28 09:32:00,63.6,51.2,30.05,NW,324,3.2,6.4,64,0.00,,,0.00,VWS V14.01,2013-07-28 13:32:00,
2013-07-28 09:37:00,63.9,51.9,30.06,SW,231,4.8,4.8,65,0.00,,,0.00,VWS V14.01,2013-07-28 13:37:00,
2013-07-28 09:42:00,64.3,52.3,30.05,NNE,20,1.6,4.8,65,0.00,,,0.00,VWS V14.01,2013-07-28 13:42:00,
2013-07-28 09:47:00,64.3,50.6,30.05,West,260,3.2,4.8,61,0.00,,,0.00,VWS V14.01,2013-07-28 13:47:00,
2013-07-28 09:52:00,64.9,52.0,30.05,West,274,1.6,6.4,63,0.00,,,0.00,VWS V14.01,2013-07-28 13:52:00,
2013-07-28 09:57:00,65.1,51.3,30.05,WSW,241,4.8,8.0,61,0.00,,,0.00,VWS V14.01,2013-07-28 13:57:00,
2013-07-28 10:02:00,65.0,51.2,30.05,WNW,291,4.8,8.0,61,0.00,,,0.00,VWS V14.01,2013-07-28 14:02:00,
2013-07-28 10:07:00,65.3,51.1,30.06,NW,307,3.2,6.4,60,0.00,,,0.00,VWS V14.01,2013-07-28 14:07:00,
2013-07-28 10:12:00,65.7,51.9,30.06,WNW,300,3.2,4.8,61,0.00,,,0.00,VWS V14.01,2013-07-28 14:12:00,
2013-07-28 10:17:00,65.7,51.0,30.06,West,273,4.8,6.4,59,0.00,,,0.00,VWS V14.01,2013-07-28 14:17:00,
2013-07-28 10:22:00,65.7,50.1,30.06,NNW,348,4.8,6.4,57,0.00,,,0.00,VWS V14.01,2013-07-28 14:22:00,
2013-07-28 10:27:00,65.4,51.2,30.06,North,7,4.8,4.8,60,0.00,,,0.00,VWS V14.01,2013-07-28 14:27:00,
2013-07-28 10:32:00,66.1,51.8,30.06,WNW,291,3.2,8.0,60,0.00,,,0.00,VWS V14.01,2013-07-28 14:32:00,
2013-07-28 10:37:00,66.5,51.3,30.06,East,89,4.8,9.6,58,0.00,,,0.00,VWS V14.01,2013-07-28 14:37:00,
2013-07-28 10:42:00,66.8,49.6,30.06,WSW,242,4.8,12.8,54,0.00,,,0.00,VWS V14.01,2013-07-28 14:42:00,
2013-07-28 10:47:00,66.8,50.1,30.06,West,267,4.8,8.0,55,0.00,,,0.00,VWS V14.01,2013-07-28 14:47:00,
2013-07-28 10:52:00,66.6,50.0,30.06,WSW,246,1.6,12.8,55,0.00,,,0.00,VWS V14.01,2013-07-28 14:52:00,
2013-07-28 10:57:00,67.0,49.8,30.06,West,277,4.8,4.8,54,0.00,,,0.00,VWS V14.01,2013-07-28 14:57:00,
2013-07-28 11:02:00,67.2,51.0,30.07,WSW,252,1.6,6.4,56,0.00,,,0.00,VWS V14.01,2013-07-28 15:02:00,
2013-07-28 11:07:00,67.5,49.8,30.07,West,274,3.2,12.8,53,0.00,,,0.00,VWS V14.01,2013-07-28 15:07:00,
2013-07-28 11:12:00,67.5,52.2,30.07,NW,324,6.4,6.4,58,0.00,,,0.00,VWS V14.01,2013-07-28 15:12:00,
2013-07-28 11:17:00,67.5,50.3,30.07,WNW,293,4.8,9.6,54,0.00,,,0.00,VWS V14.01,2013-07-28 15:17:00,
2013-07-28 11:22:00,67.7,50.5,30.07,WSW,250,3.2,11.2,54,0.00,,,0.00,VWS V14.01,2013-07-28 15:22:00,
2013-07-28 11:27:00,68.5,51.2,30.07,NW,314,4.8,8.0,54,0.00,,,0.00,VWS V14.01,2013-07-28 15:27:00,
2013-07-28 11:32:00,68.3,51.5,30.08,NNW,346,8.0,12.8,55,0.00,,,0.00,VWS V14.01,2013-07-28 15:32:00,
2013-07-28 11:37:00,68.4,50.1,30.08,NNE,23,1.6,8.0,52,0.00,,,0.00,VWS V14.01,2013-07-28 15:37:00,
2013-07-28 11:42:00,68.8,51.0,30.08,SW,220,4.8,4.8,53,0.00,,,0.00,VWS V14.01,2013-07-28 15:42:00,
2013-07-28 11:47:00,68.7,50.9,30.08,West,280,6.4,9.6,53,0.00,,,0.00,VWS V14.01,2013-07-28 15:47:00,
2013-07-28 11:52:00,69.2,53.3,30.08,North,357,1.6,6.4,57,0.00,,,0.00,VWS V14.01,2013-07-28 15:52:00,
2013-07-28 11:57:00,69.1,50.2,30.08,West,265,9.6,11.2,51,0.00,,,0.00,VWS V14.01,2013-07-28 15:57:00,
2013-07-28 12:02:00,68.5,51.2,30.07,West,274,8.0,11.2,54,0.00,,,0.00,VWS V14.01,2013-07-28 16:02:00,
2013-07-28 12:07:00,69.2,52.8,30.07,NW,312,8.0,8.0,56,0.00,,,0.00,VWS V14.01,2013-07-28 16:07:00,
2013-07-28 12:12:00,69.6,51.7,30.07,WNW,294,3.2,8.0,53,0.00,,,0.00,VWS V14.01,2013-07-28 16:12:00,
2013-07-28 12:17:00,69.3,52.0,30.07,NNW,340,4.8,4.8,54,0.00,,,0.00,VWS V14.01,2013-07-28 16:17:00,
2013-07-28 12:22:00,68.8,52.0,30.07,WNW,284,3.2,9.6,55,0.00,,,0.00,VWS V14.01,2013-07-28 16:22:00,
2013-07-28 12:27:00,69.7,52.3,30.07,WSW,255,4.8,6.4,54,0.00,,,0.00,VWS V14.01,2013-07-28 16:27:00,
2013-07-28 12:32:00,69.6,52.7,30.07,West,267,3.2,8.0,55,0.00,,,0.00,VWS V14.01,2013-07-28 16:32:00,
2013-07-28 12:37:00,69.6,52.2,30.07,WSW,245,1.6,22.4,54,0.00,,,0.00,VWS V14.01,2013-07-28 16:37:00,
2013-07-28 12:42:00,69.8,51.4,30.07,WSW,250,6.4,14.4,52,0.00,,,0.00,VWS V14.01,2013-07-28 16:42:00,
2013-07-28 12:47:00,69.9,50.4,30.07,WNW,300,1.6,3.2,50,0.00,,,0.00,VWS V14.01,2013-07-28 16:47:00,
2013-07-28 12:52:00,69.7,51.3,30.07,WSW,242,6.4,9.6,52,0.00,,,0.00,VWS V14.01,2013-07-28 16:52:00,
2013-07-28 12:57:00,70.3,52.4,30.07,SW,220,6.4,9.6,53,0.00,,,0.00,VWS V14.01,2013-07-28 16:57:00,
2013-07-28 13:02:00,70.8,51.8,30.07,West,272,4.8,8.0,51,0.00,,,0.00,VWS V14.01,2013-07-28 17:02:00,
2013-07-28 13:07:00,70.3,51.3,30.07,NW,314,4.8,11.2,51,0.00,,,0.00,VWS V14.01,2013-07-28 17:07:00,
2013-07-28 13:12:00,70.4,53.5,30.07,SW,231,3.2,4.8,55,0.00,,,0.00,VWS V14.01,2013-07-28 17:12:00,
2013-07-28 13:17:00,70.9,53.4,30.07,West,272,6.4,6.4,54,0.00,,,0.00,VWS V14.01,2013-07-28 17:17:00,
2013-07-28 13:22:00,70.7,52.2,30.07,WSW,238,1.6,11.2,52,0.00,,,0.00,VWS V14.01,2013-07-28 17:22:00,
2013-07-28 13:27:00,71.0,52.5,30.07,WNW,297,4.8,9.6,52,0.00,,,0.00,VWS V14.01,2013-07-28 17:27:00,
2013-07-28 13:32:00,70.9,54.0,30.07,WNW,283,1.6,8.0,55,0.00,,,0.00,VWS V14.01,2013-07-28 17:32:00,
2013-07-28 13:37:00,70.9,51.9,30.07,WSW,243,1.6,4.8,51,0.00,,,0.00,VWS V14.01,2013-07-28 17:37:00,
2013-07-28 13:42:00,71.2,52.2,30.07,WSW,253,9.6,12.8,51,0.00,,,0.00,VWS V14.01,2013-07-28 17:42:00,
2013-07-28 13:47:00,71.6,52.5,30.06,NNW,345,3.2,9.6,51,0.00,,,0.00,VWS V14.01,2013-07-28 17:47:00,
2013-07-28 13:52:00,71.6,50.3,30.06,SW,229,9.6,12.8,47,0.00,,,0.00,VWS V14.01,2013-07-28 17:52:00,
2013-07-28 13:57:00,71.2,51.6,30.06,ENE,63,6.4,8.0,50,0.00,,,0.00,VWS V14.01,2013-07-28 17:57:00,
2013-07-28 14:02:00,71.5,54.0,30.06,ENE,69,0.0,4.8,54,0.00,,,0.00,VWS V14.01,2013-07-28 18:02:00,
2013-07-28 14:07:00,72.2,52.5,30.06,North,5,8.0,8.0,50,0.00,,,0.00,VWS V14.01,2013-07-28 18:07:00,
2013-07-28 14:12:00,72.0,51.3,30.06,SSW,201,3.2,9.6,48,0.00,,,0.00,VWS V14.01,2013-07-28 18:12:00,
2013-07-28 14:17:00,72.0,52.4,30.06,SSE,167,3.2,11.2,50,0.00,,,0.00,VWS V14.01,2013-07-28 18:17:00,
2013-07-28 14:22:00,72.5,52.3,30.05,South,179,4.8,8.0,49,0.00,,,0.00,VWS V14.01,2013-07-28 18:22:00,
2013-07-28 14:27:00,72.7,53.0,30.05,SW,234,6.4,9.6,50,0.00,,,0.00,VWS V14.01,2013-07-28 18:27:00,
2013-07-28 14:32:00,72.7,52.5,30.05,WSW,243,6.4,9.6,49,0.00,,,0.00,VWS V14.01,2013-07-28 18:32:00,
2013-07-28 14:37:00,72.5,53.4,30.05,SW,217,6.4,11.2,51,0.00,,,0.00,VWS V14.01,2013-07-28 18:37:00,
2013-07-28 14:42:00,72.3,52.1,30.05,West,272,3.2,11.2,49,0.00,,,0.00,VWS V14.01,2013-07-28 18:42:00,
2013-07-28 14:47:00,72.8,52.5,30.05,SW,222,9.6,9.6,49,0.00,,,0.00,VWS V14.01,2013-07-28 18:47:00,
2013-07-28 14:52:00,73.0,54.9,30.05,SW,232,3.2,11.2,53,0.00,,,0.00,VWS V14.01,2013-07-28 18:52:00,
2013-07-28 14:57:00,73.5,54.3,30.05,WSW,241,11.2,11.2,51,0.00,,,0.00,VWS V14.01,2013-07-28 18:57:00,
2013-07-28 15:02:00,73.4,52.5,30.05,WNW,293,8.0,8.0,48,0.00,,,0.00,VWS V14.01,2013-07-28 19:02:00,
2013-07-28 15:07:00,73.5,53.7,30.05,West,274,4.8,8.0,50,0.00,,,0.00,VWS V14.01,2013-07-28 19:07:00,
2013-07-28 15:12:00,73.3,52.5,30.05,WSW,254,8.0,11.2,48,0.00,,,0.00,VWS V14.01,2013-07-28 19:12:00,
2013-07-28 15:17:00,73.3,53.0,30.05,SW,224,4.8,8.0,49,0.00,,,0.00,VWS V14.01,2013-07-28 19:17:00,
2013-07-28 15:22:00,73.4,52.5,30.05,SW,225,3.2,12.8,48,0.00,,,0.00,VWS V14.01,2013-07-28 19:22:00,
2013-07-28 15:27:00,73.8,53.5,30.05,West,259,4.8,14.4,49,0.00,,,0.00,VWS V14.01,2013-07-28 19:27:00,
2013-07-28 15:32:00,74.1,53.7,30.05,West,272,0.0,12.8,49,0.00,,,0.00,VWS V14.01,2013-07-28 19:32:00,
2013-07-28 15:37:00,74.3,53.4,30.05,WSW,238,8.0,14.4,48,0.00,,,0.00,VWS V14.01,2013-07-28 19:37:00,
2013-07-28 15:42:00,73.6,52.7,30.04,SE,127,3.2,6.4,48,0.00,,,0.00,VWS V14.01,2013-07-28 19:42:00,
2013-07-28 15:47:00,73.9,53.6,30.04,West,274,4.8,11.2,49,0.00,,,0.00,VWS V14.01,2013-07-28 19:47:00,
2013-07-28 15:52:00,73.8,52.9,30.04,SW,231,3.2,14.4,48,0.00,,,0.00,VWS V14.01,2013-07-28 19:52:00,
2013-07-28 15:57:00,73.8,52.9,30.04,SW,232,1.6,6.4,48,0.00,,,0.00,VWS V14.01,2013-07-28 19:57:00,
2013-07-28 16:02:00,74.2,53.8,30.04,SE,138,3.2,8.0,49,0.00,,,0.00,VWS V14.01,2013-07-28 20:02:00,
2013-07-28 16:07:00,74.3,53.4,30.03,WSW,252,1.6,8.0,48,0.00,,,0.00,VWS V14.01,2013-07-28 20:07:00,
2013-07-28 16:12:00,74.5,53.5,30.04,West,279,6.4,12.8,48,0.00,,,0.00,VWS V14.01,2013-07-28 20:12:00,
2013-07-28 16:17:00,74.3,52.8,30.03,WSW,257,1.6,8.0,47,0.00,,,0.00,VWS V14.01,2013-07-28 20:17:00,
2013-07-28 16:22:00,74.3,53.4,30.04,WSW,246,4.8,9.6,48,0.00,,,0.00,VWS V14.01,2013-07-28 20:22:00,
2013-07-28 16:27:00,74.4,54.0,30.03,SSW,206,1.6,12.8,49,0.00,,,0.00,VWS V14.01,2013-07-28 20:27:00,
2013-07-28 16:32:00,74.4,54.0,30.03,SW,215,4.8,8.0,49,0.00,,,0.00,VWS V14.01,2013-07-28 20:32:00,
2013-07-28 16:37:00,74.9,53.3,30.03,WNW,297,11.2,14.4,47,0.00,,,0.00,VWS V14.01,2013-07-28 20:37:00,
2013-07-28 16:42:00,74.8,53.2,30.03,SW,222,1.6,11.2,47,0.00,,,0.00,VWS V14.01,2013-07-28 20:42:00,
2013-07-28 16:47:00,74.8,53.2,30.03,WSW,257,6.4,9.6,47,0.00,,,0.00,VWS V14.01,2013-07-28 20:47:00,
2013-07-28 16:52:00,75.0,55.1,30.03,SW,215,12.8,12.8,50,0.00,,,0.00,VWS V14.01,2013-07-28 20:52:00,
2013-07-28 16:57:00,74.7,53.7,30.04,NW,314,9.6,14.4,48,0.00,,,0.00,VWS V14.01,2013-07-28 20:57:00,
2013-07-28 17:02:00,75.2,53.6,30.04,NNW,345,3.2,11.2,47,0.00,,,0.00,VWS V14.01,2013-07-28 21:02:00,
2013-07-28 17:07:00,75.5,53.9,30.04,WSW,243,8.0,11.2,47,0.00,,,0.00,VWS V14.01,2013-07-28 21:07:00,
2013-07-28 17:12:00,75.2,54.2,30.04,WNW,300,4.8,8.0,48,0.00,,,0.00,VWS V14.01,2013-07-28 21:12:00,
2013-07-28 17:17:00,75.5,52.7,30.04,WSW,242,9.6,16.0,45,0.00,,,0.00,VWS V14.01,2013-07-28 21:17:00,
2013-07-28 17:22:00,75.8,52.4,30.04,SW,234,4.8,12.8,44,0.00,,,0.00,VWS V14.01,2013-07-28 21:22:00,
2013-07-28 17:27:00,75.7,52.9,30.04,North,351,8.0,11.2,45,0.00,,,0.00,VWS V14.01,2013-07-28 21:27:00,
2013-07-28 17:32:00,75.7,54.1,30.04,WNW,300,3.2,9.6,47,0.00,,,0.00,VWS V14.01,2013-07-28 21:32:00,
2013-07-28 17:37:00,75.8,54.2,30.04,West,276,4.8,4.8,47,0.00,,,0.00,VWS V14.01,2013-07-28 21:37:00,
2013-07-28 17:42:00,76.1,55.0,30.04,NE,45,1.6,3.2,48,0.00,,,0.00,VWS V14.01,2013-07-28 21:42:00,
2013-07-28 17:47:00,76.1,53.8,30.04,West,280,6.4,9.6,46,0.00,,,0.00,VWS V14.01,2013-07-28 21:47:00,
2013-07-28 17:52:00,75.6,54.0,30.04,SW,236,9.6,12.8,47,0.00,,,0.00,VWS V14.01,2013-07-28 21:52:00,
2013-07-28 17:57:00,75.7,54.1,30.04,West,259,4.8,11.2,47,0.00,,,0.00,VWS V14.01,2013-07-28 21:57:00,
2013-07-28 18:02:00,75.8,53.6,30.04,NW,314,6.4,12.8,46,0.00,,,0.00,VWS V14.01,2013-07-28 22:02:00,
2013-07-28 18:07:00,75.6,53.4,30.04,West,273,6.4,11.2,46,0.00,,,0.00,VWS V14.01,2013-07-28 22:07:00,
2013-07-28 18:12:00,76.1,54.4,30.04,West,269,3.2,11.2,47,0.00,,,0.00,VWS V14.01,2013-07-28 22:12:00,
2013-07-28 18:17:00,75.8,54.7,30.04,West,279,4.8,6.4,48,0.00,,,0.00,VWS V14.01,2013-07-28 22:17:00,
2013-07-28 18:22:00,75.9,53.7,30.04,West,260,3.2,6.4,46,0.00,,,0.00,VWS V14.01,2013-07-28 22:22:00,
2013-07-28 18:27:00,76.4,54.1,30.05,SW,236,4.8,8.0,46,0.00,,,0.00,VWS V14.01,2013-07-28 22:27:00,
2013-07-28 18:32:00,76.0,53.2,30.05,WNW,302,6.4,11.2,45,0.00,,,0.00,VWS V14.01,2013-07-28 22:32:00,
2013-07-28 18:37:00,75.9,53.7,30.05,West,274,8.0,12.8,46,0.00,,,0.00,VWS V14.01,2013-07-28 22:37:00,
2013-07-28 18:42:00,75.7,53.5,30.05,NW,323,1.6,9.6,46,0.00,,,0.00,VWS V14.01,2013-07-28 22:42:00,
2013-07-28 18:47:00,76.2,53.9,30.05,WNW,294,3.2,4.8,46,0.00,,,0.00,VWS V14.01,2013-07-28 22:47:00,
2013-07-28 18:52:00,76.9,54.6,30.05,West,270,1.6,3.2,46,0.00,,,0.00,VWS V14.01,2013-07-28 22:52:00,
2013-07-28 18:57:00,76.5,54.2,30.05,West,265,3.2,4.8,46,0.00,,,0.00,VWS V14.01,2013-07-28 22:57:00,
2013-07-28 19:02:00,76.5,54.8,30.05,WNW,300,1.6,12.8,47,0.00,,,0.00,VWS V14.01,2013-07-28 23:02:00,
2013-07-28 19:07:00,76.2,52.7,30.05,SW,236,6.4,9.6,44,0.00,,,0.00,VWS V14.01,2013-07-28 23:07:00,
2013-07-28 19:12:00,75.1,52.9,30.05,WNW,291,6.4,9.6,46,0.00,,,0.00,VWS V14.01,2013-07-28 23:12:00,
2013-07-28 19:17:00,74.1,52.6,30.05,West,280,8.0,9.6,47,0.00,,,0.00,VWS V14.01,2013-07-28 23:17:00,
2013-07-28 19:22:00,73.7,53.4,30.05,West,260,3.2,8.0,49,0.00,,,0.00,VWS V14.01,2013-07-28 23:22:00,
2013-07-28 19:27:00,74.6,53.1,30.05,WSW,248,4.8,4.8,47,0.00,,,0.00,VWS V14.01,2013-07-28 23:27:00,
2013-07-28 19:32:00,75.2,53.6,30.06,West,280,3.2,4.8,47,0.00,,,0.00,VWS V14.01,2013-07-28 23:32:00,
2013-07-28 19:37:00,75.7,53.5,30.06,WSW,255,1.6,6.4,46,0.00,,,0.00,VWS V14.01,2013-07-28 23:37:00,
2013-07-28 19:42:00,75.7,54.1,30.06,SW,236,3.2,4.8,47,0.00,,,0.00,VWS V14.01,2013-07-28 23:42:00,
2013-07-28 19:47:00,75.5,54.5,30.06,West,279,0.0,6.4,48,0.00,,,0.00,VWS V14.01,2013-07-28 23:47:00,
2013-07-28 19:52:00,74.7,53.7,30.06,North,351,3.2,3.2,48,0.00,,,0.00,VWS V14.01,2013-07-28 23:52:00,
2013-07-28 19:57:00,74.3,54.5,30.06,WNW,293,1.6,4.8,50,0.00,,,0.00,VWS V14.01,2013-07-28 23:57:00,
2013-07-28 20:02:00,74.3,54.5,30.06,WSW,256,0.0,3.2,50,0.00,,,0.00,VWS V14.01,2013-07-29 00:02:00,
2013-07-28 20:07:00,74.4,55.1,30.06,NW,326,1.6,1.6,51,0.00,,,0.00,VWS V14.01,2013-07-29 00:07:00,
2013-07-28 20:12:00,74.4,55.1,30.06,NW,320,0.0,1.6,51,0.00,,,0.00,VWS V14.01,2013-07-29 00:12:00,
2013-07-28 20:17:00,74.0,55.3,30.07,WNW,291,0.0,1.6,52,0.00,,,0.00,VWS V14.01,2013-07-29 00:17:00,
2013-07-28 20:22:00,73.0,54.9,30.07,WNW,291,1.6,1.6,53,0.00,,,0.00,VWS V14.01,2013-07-29 00:22:00,
2013-07-28 20:27:00,72.2,55.7,30.07,NW,324,0.0,1.6,56,0.00,,,0.00,VWS V14.01,2013-07-29 00:27:00,
2013-07-28 20:32:00,71.6,55.1,30.07,NW,321,0.0,1.6,56,0.00,,,0.00,VWS V14.01,2013-07-29 00:32:00,
2013-07-28 20:37:00,71.2,55.7,30.07,NW,322,0.0,0.0,58,0.00,,,0.00,VWS V14.01,2013-07-29 00:37:00,
2013-07-28 20:42:00,70.8,55.3,30.07,NW,321,1.6,1.6,58,0.00,,,0.00,VWS V14.01,2013-07-29 00:42:00,
2013-07-28 20:47:00,70.4,55.4,30.07,WNW,291,0.0,1.6,59,0.00,,,0.00,VWS V14.01,2013-07-29 00:47:00,
2013-07-28 20:52:00,70.0,56.4,30.07,WNW,291,0.0,0.0,62,0.00,,,0.00,VWS V14.01,2013-07-29 00:52:00,
2013-07-28 20:57:00,69.6,56.0,30.07,WNW,291,0.0,0.0,62,0.00,,,0.00,VWS V14.01,2013-07-29 00:57:00,
2013-07-28 21:02:00,69.2,55.6,30.08,WNW,291,0.0,0.0,62,0.00,,,0.00,VWS V14.01,2013-07-29 01:02:00,
2013-07-28 21:07:00,68.7,56.5,30.07,WNW,291,0.0,0.0,65,0.00,,,0.00,VWS V14.01,2013-07-29 01:07:00,
2013-07-28 21:12:00,68.1,56.7,30.08,WNW,291,0.0,0.0,67,0.00,,,0.00,VWS V14.01,2013-07-29 01:12:00,
2013-07-28 21:17:00,67.4,56.1,30.08,WNW,291,0.0,0.0,67,0.00,,,0.00,VWS V14.01,2013-07-29 01:17:00,
2013-07-28 21:22:00,66.8,56.3,30.08,WNW,291,0.0,0.0,69,0.00,,,0.00,VWS V14.01,2013-07-29 01:22:00,
2013-07-28 21:27:00,66.2,56.1,30.08,WNW,291,0.0,0.0,70,0.00,,,0.00,VWS V14.01,2013-07-29 01:27:00,
2013-07-28 21:32:00,65.7,56.0,30.08,WNW,291,0.0,0.0,71,0.00,,,0.00,VWS V14.01,2013-07-29 01:32:00,
2013-07-28 21:37:00,65.2,56.3,30.08,WNW,291,0.0,0.0,73,0.00,,,0.00,VWS V14.01,2013-07-29 01:37:00,
2013-07-28 21:42:00,64.8,56.3,30.09,WNW,291,0.0,0.0,74,0.00,,,0.00,VWS V14.01,2013-07-29 01:42:00,
2013-07-28 21:47:00,64.3,55.8,30.09,WNW,291,0.0,0.0,74,0.00,,,0.00,VWS V14.01,2013-07-29 01:47:00,
2013-07-28 21:52:00,64.1,56.4,30.09,WNW,291,0.0,0.0,76,0.00,,,0.00,VWS V14.01,2013-07-29 01:52:00,
2013-07-28 21:58:00,63.7,56.7,30.09,WNW,291,0.0,0.0,78,0.00,,,0.00,VWS V14.01,2013-07-29 01:58:00,
2013-07-28 22:03:00,63.4,56.8,30.09,WNW,291,0.0,0.0,79,0.00,,,0.00,VWS V14.01,2013-07-29 02:03:00,
2013-07-28 22:08:00,63.2,56.6,30.09,WNW,291,0.0,0.0,79,0.00,,,0.00,VWS V14.01,2013-07-29 02:08:00,
2013-07-28 22:13:00,63.0,56.4,30.10,WNW,291,0.0,0.0,79,0.00,,,0.00,VWS V14.01,2013-07-29 02:13:00,
2013-07-28 22:18:00,62.7,56.5,30.10,WNW,291,0.0,0.0,80,0.00,,,0.00,VWS V14.01,2013-07-29 02:18:00,
2013-07-28 22:23:00,62.4,56.5,30.10,WNW,291,0.0,0.0,81,0.00,,,0.00,VWS V14.01,2013-07-29 02:23:00,
2013-07-28 22:28:00,62.0,56.5,30.10,WNW,291,0.0,0.0,82,0.00,,,0.00,VWS V14.01,2013-07-29 02:28:00,
2013-07-28 22:33:00,61.7,56.5,30.10,WNW,291,0.0,0.0,83,0.00,,,0.00,VWS V14.01,2013-07-29 02:33:00,
2013-07-28 22:38:00,61.5,56.6,30.10,WNW,291,0.0,0.0,84,0.00,,,0.00,VWS V14.01,2013-07-29 02:38:00,
2013-07-28 22:43:00,61.3,56.1,30.10,WNW,291,0.0,0.0,83,0.00,,,0.00,VWS V14.01,2013-07-29 02:43:00,
2013-07-28 22:48:00,60.9,55.7,30.10,WNW,291,0.0,0.0,83,0.00,,,0.00,VWS V14.01,2013-07-29 02:48:00,
2013-07-28 22:53:00,60.8,56.3,30.11,WNW,291,0.0,0.0,85,0.00,,,0.00,VWS V14.01,2013-07-29 02:53:00,
2013-07-28 22:58:00,60.8,56.6,30.11,WNW,291,0.0,0.0,86,0.00,,,0.00,VWS V14.01,2013-07-29 02:58:00,
2013-07-28 23:03:00,60.7,56.5,30.11,WNW,291,0.0,0.0,86,0.00,,,0.00,VWS V14.01,2013-07-29 03:03:00,
2013-07-28 23:09:00,60.6,56.7,30.11,WNW,291,0.0,0.0,87,0.00,,,0.00,VWS V14.01,2013-07-29 03:09:00,
2013-07-28 23:14:00,60.4,56.8,30.11,WNW,291,0.0,0.0,88,0.00,,,0.00,VWS V14.01,2013-07-29 03:14:00,
2013-07-28 23:19:00,60.0,56.1,30.11,WNW,291,0.0,0.0,87,0.00,,,0.00,VWS V14.01,2013-07-29 03:19:00,
2013-07-28 23:24:00,59.7,56.2,30.11,WNW,291,0.0,0.0,88,0.00,,,0.00,VWS V14.01,2013-07-29 03:24:00,
2013-07-28 23:29:00,59.4,55.8,30.11,WNW,291,0.0,0.0,88,0.00,,,0.00,VWS V14.01,2013-07-29 03:29:00,
2013-07-28 23:34:00,59.2,56.0,30.11,WNW,291,0.0,0.0,89,0.00,,,0.00,VWS V14.01,2013-07-29 03:34:00,
2013-07-28 23:39:00,59.2,56.6,30.11,WNW,291,0.0,0.0,91,0.00,,,0.00,VWS V14.01,2013-07-29 03:39:00,
2013-07-28 23:44:00,59.1,56.5,30.11,WNW,291,0.0,0.0,91,0.00,,,0.00,VWS V14.01,2013-07-29 03:44:00,
2013-07-28 23:49:00,59.1,56.5,30.11,WNW,291,0.0,0.0,91,0.00,,,0.00,VWS V14.01,2013-07-29 03:49:00,
2013-07-28 23:55:00,58.9,56.3,30.11,WNW,291,0.0,0.0,91,0.00,,,0.00,VWS V14.01,2013-07-29 03:55:00,